This demonstration page uses our WeatherBlox Daily Observations layout. Learn more.

38.88101, -77.10428

Hourly Observations for March 4, 2016

Temp ( °F °C ) Dew Point ( °F °C ) Humidity (%) Winds ( mph kmh ) Pressure ( in mb ) Visibility ( mi km ) Precip ( " mm )
12:10 am 00:10 Cloudy with Light Snow 34 1 30 -1 87 87 SE 6 9 30.15 1021 2 3.218688 0 0
12:28 am 00:28 Cloudy with Light Snow 34 1 30 -1 87 87 SE 3 6 30.15 1021 2 3.218688 0 0
12:39 am 00:39 Cloudy with Light Snow 34 1 30 -1 87 87 SE 3 6 30.15 1021 4 6.437376 0.01 0.254
12:52 am 00:52 Cloudy with Light Snow 34 1 30 -1 87 87 Calm 30.15 1021 5 8.04672 0.01 0.254
1:30 am 01:30 Cloudy with Light Snow 34 1 30 -1 87 87 E 5 7 30.12 1020 4 6.437376 0 0
1:45 am 01:45 Cloudy with Light Snow 34 1 30 -1 87 87 ENE 3 6 30.12 1020 3 4.828032 0.001 0.001
1:52 am 01:52 Cloudy with Light Snow 34 1 30 -1 87 87 ENE 3 6 30.12 1020 3 4.828032 0.001 0.001
2:11 am 02:11 Cloudy with Light Snow 34 1 30 -1 87 87 ENE 6 9 30.09 1019 2 3.218688 0.001 0.001
2:27 am 02:27 Cloudy with Light Snow 34 1 30 -1 87 87 NE 8 13 30.09 1019 2.5 4.02336 0.01 0.254
2:31 am 02:31 Cloudy with Light Snow 34 1 30 -1 87 87 ENE 8 13 30.09 1019 3 4.828032 0.01 0.254
2:52 am 02:52 Cloudy with Light Snow 34 1 30 -1 87 87 ENE 8 13 30.06 1018 2.5 4.02336 0.01 0.254
2:58 am 02:58 Cloudy with Light Snow 34 1 30 -1 87 87 NE 7 11 30.06 1018 2.5 4.02336 0 0
3:48 am 03:48 Cloudy with Light Snow 34 1 30 -1 87 87 ENE 8 13 30.03 1017 2 3.218688 0 0
3:52 am 03:52 Cloudy with Light Snow 34 1 30 -1 87 87 NE 8 13 30.06 1018 1.75 2.816352 0.01 0.254
4:09 am 04:09 Cloudy with Light Snow 34 1 30 -1 87 87 ENE 8 13 30.06 1018 2 3.218688 0.01 0.254
4:52 am 04:52 Cloudy with Light Snow 34 1 30 -1 87 87 NE 8 13 30.06 1018 2.5 4.02336 0.01 0.254
5:00 am 05:00 Cloudy with Light Snow 34 1 30 -1 87 87 NE 9 15 30.06 1018 2.5 4.02336 0 0
5:07 am 05:07 Cloudy with Light Snow 34 1 30 -1 87 87 NE 9 15 30.06 1018 4 6.437376 0 0
5:09 am 05:09 Cloudy with Light Snow 34 1 30 -1 87 87 NE 9 15 30.06 1018 4 6.437376 0.01 0.254
5:12 am 05:12 Cloudy with Light Snow 34 1 30 -1 87 87 NE 10 17 30.06 1018 4 6.437376 0 0
5:48 am 05:48 Cloudy with Light Snow 34 1 30 -1 87 87 NE 9 15 30.06 1018 6 9.656064 0 0
5:52 am 05:52 Cloudy with Light Snow 34 1 30 -1 87 87 ENE 9 15 30.06 1018 6 9.656064 0.01 0.254
6:13 am 06:13 Cloudy 34 1 30 -1 87 87 NE 10 17 30.06 1018 8 12.874752 0.001 0.001
6:22 am 06:22 Cloudy with Mist and Fog 34 1 30 -1 87 87 NNE 9 15 30.06 1018 6 9.656064 0 0
6:52 am 06:52 Cloudy 34 1 30 -1 87 87 NE 10 17 30.06 1018 8 12.874752 0.001 0.001
7:37 am 07:37 Cloudy 34 1 30 -1 87 87 NNE 13 20 30.09 1019 8 12.874752 0 0
7:52 am 07:52 Cloudy 34 1 30 -1 87 87 NE 13 20 30.09 1019 9 14.484096 0 0
8:52 am 08:52 Cloudy 34 1 30 -1 87 87 NNE 15 24 30.09 1019 8 12.874752 0 0
9:22 am 09:22 Cloudy with Mist and Fog 34 1 30 -1 87 87 NNE 15 24 30.09 1019 6 9.656064 0 0
9:48 am 09:48 Cloudy 36 2 30 -1 81 81 NNE 16 26 30.09 1019 9 14.484096 0 0
9:52 am 09:52 Cloudy 36 2 30 -1 81 81 NNE 16 26 30.06 1018 10 16.09344 0 0
10:52 am 10:52 Cloudy 37 3 28 -2 70 70 NNE 16 26 30.06 1018 10 16.09344 0 0
11:52 am 11:52 Cloudy 37 3 28 -2 70 70 NNE 14 22 30.06 1018 10 16.09344 0 0
12:52 pm 12:52 Cloudy 39 4 28 -2 65 65 N 16 26 30.03 1017 10 16.09344 0 0
1:25 pm 13:25 Cloudy 41 5 28 -2 61 61 N 14 22 30.03 1017 10 16.09344 0 0
1:52 pm 13:52 Cloudy 39 4 28 -2 65 65 NNW 15 24 30.03 1017 10 16.09344 0 0
2:52 pm 14:52 Cloudy 41 5 28 -2 61 61 N 16 26 30.03 1017 10 16.09344 0 0
3:52 pm 15:52 Cloudy 41 5 28 -2 61 61 N 16 26 30.06 1018 10 16.09344 0 0
4:52 pm 16:52 Cloudy 39 4 28 -2 65 65 N 13 20 30.06 1018 10 16.09344 0 0
5:52 pm 17:52 Cloudy 41 5 28 -2 61 61 NNW 13 20 30.09 1019 10 16.09344 0 0
6:52 pm 18:52 Cloudy 39 4 28 -2 65 65 N 14 22 30.12 1020 10 16.09344 0 0
7:52 pm 19:52 Cloudy 39 4 28 -2 65 65 NNW 14 22 30.12 1020 10 16.09344 0 0
8:52 pm 20:52 Cloudy 39 4 25 -4 56 56 NNW 20 31 30.15 1021 10 16.09344 0 0
9:52 pm 21:52 Cloudy 39 4 25 -4 56 56 N 14 22 30.15 1021 10 16.09344 0 0
10:52 pm 22:52 Cloudy 39 4 25 -4 56 56 N 10 17 30.15 1021 10 16.09344 0 0
11:52 pm 23:52 Cloudy 39 4 25 -4 56 56 NNW 8 13 30.18 1022 10 16.09344 0 0

Powered by AerisWeather